Location: Carnières
(50.1682°N, 3.3474°E)
Time: 13:13:26
(UTC+00:00)

Geosat - Pass Details

Date: 23 May 2024
Orbit: 760 x 763 km, 108.1° (Epoch: 16 June)

Event Time Altitude Azimuth Distance (km) Brightness Sun altitude
Rises 02:25:03 0° 139° (SE) 3,214 7.1 -10.7°
Reaches altitude 10° 02:27:20 10° 136° (SE) 2,292 6.4 -10.5°
Maximum altitude 02:32:17 67° 55° (NE) 831 4.5 -10.0°
Drops below altitude 10° 02:37:16 10° 334° (NNW) 2,309 6.8 -9.4°
Sets 02:39:34 0° 332° (NNW) 3,239 7.5 -9.2°
